Presure
136 138 140 147 217 207 214 128 131 155 185 190 186 190 194 207 208 202 197 195 188 187 183 190 193 193 217 220 205 196 199 207
193 196 131 127 135 127 200 201 192 186 192 218 233 206 204 200 204 198 195 196 197 201 200 206 241 223 209 195 191 216 212 205
206 151 159 226 219 224 221 220 218 208 206 203 200 201 193 190 187 185 188 192 191 205 230 219 207 197 190 216 211 203 206 203
223 207 212 211 214 214 212 216 202 200 196 202 202 199 197 193 197 200 206 223 225 219 207 199 193 219 214 207 206 201 193 195
213 205 201 199 196 201 199 198 197 197 191 189 183 190 192 193 197 205 225 218 202 194 199 224 212 212 207 199 196 194 195 195
201 203 211 194 194 197 192 193 201 193 194 206 206 204 206 223 222 214 200 196 187 217 211 199 196 196 198 196 200 193 194 199
206 213 188 204 207 213 209 210 210 209 206 212 225 213 217 208 198 195 195 198 208 198 195 193 192 189 193 198 201 197 185 207
222 214 210 209 203 206 215 217 216 214 211 225 212 198 194 192 193 204 210 204 196 191 193 195 194 193 197 196 193 202 229 248
203 208 205 208 210 215 209 202 222 211 204 196 200 189 194 210 213 207 205 195 188 195 209 198 204 191 197 194 214 252 241 207
211 206 208 218 205 205 218 208 199 197 195 198 202 202 213 214 208 211 206 198 195 200 195 195 194 195 209 219 234 222 207 205
213 212 210 209 216 210 200 196 191 194 198 195 203 205 202 205 205 211 212 203 201 195 195 196 205 206 217 232 234 206 210 213
204 202 221 221 206 198 195 186 190 192 195 200 203 201 204 211 216 198 192 192 195 196 205 209 206 216 230 223 207 210 215 216
213 220 210 199 200 195 195 195 192 197 199 201 203 206 208 202 190 191 201 195 193 207 204 203 214 218 226 206 215 211 215 245
216 202 196 195 190 189 190 192 195 199 202 202 197 187 190 194 203 196 192 209 205 196 203 215 218 233 213 216 212 229 253 251
202 203 192 190 191 193 193 198 203 204 197 191 192 191 200 205 190 200 205 203 198 211 210 220 236 227 211 211 231 255 257 261
192 193 193 193 194 199 201 197 180 183 193 196 204 210 200 196 198 203 201 206 215 206 223 239 221 210 206 236 257 265 258 259
194 194 196 205 204 193 203 188 191 199 207 198 197 198 202 196 207 196 211 205 220 223 235 245 211 222 245 256 260 264 263 268
198 201 197 201 195 196 188 194 197 199 194 200 199 202 196 204 195 210 203 215 213 220 246 222 228 245 252 260 262 273 276 277
203 202 191 189 194 189 188 199 186 198 195 195 196 197 194 197 208 201 214 215 219 231 234 233 241 247 264 261 267 276 281 298
Wind_Speed
52 55 58 55 54 53 49 64 67 65 62 65 69 71 75 72 64 67 70 75 81 82 86 89 90 92 94 83 87 90 90 90
50 54 54 59 61 60 62 59 60 65 66 63 60 60 61 64 66 67 71 77 81 84 87 91 71 79 82 84 88 77 80 83
62 56 52 41 39 43 52 52 52 56 53 54 58 57 65 68 71 75 78 81 83 83 73 78 81 82 83 74 74 81 81 83
47 42 37 39 37 37 42 42 50 55 58 56 58 61 67 72 76 79 80 76 73 74 76 79 82 74 74 75 77 80 84 86
33 41 42 45 49 44 45 48 54 53 58 61 64 66 70 73 76 79 69 69 73 77 78 69 73 75 76 81 83 85 89 90
43 42 39 50 49 46 50 55 54 55 60 61 62 67 70 67 64 67 69 71 75 69 72 75 77 80 83 86 88 88 91 95
42 41 46 45 46 51 56 59 60 62 61 61 57 59 60 63 66 68 70 72 68 72 74 78 80 82 85 89 92 94 91 97
41 38 42 44 45 47 49 51 52 53 53 50 52 57 61 65 68 69 68 66 67 72 76 77 81 84 87 89 90 93 94 84
43 39 40 44 44 43 43 46 44 48 50 52 54 59 62 64 64 66 65 68 74 75 78 81 84 83 90 90 94 93 87 93
39 39 41 40 39 40 40 45 49 51 53 56 58 60 61 63 64 66 67 70 75 79 82 85 88 92 97 96 94 91 95 98
37 39 39 39 37 38 43 48 51 54 57 60 61 61 63 64 66 68 69 74 78 83 87 91 93 96 98 98 96 96 100 103
36 39 38 39 40 42 45 52 53 56 60 63 64 66 68 70 67 69 76 79 84 88 90 92 95 98 100 97 98 102 106 109
35 36 38 42 45 49 51 53 56 58 60 62 65 66 66 65 71 76 78 82 86 87 91 95 99 100 100 99 103 104 110 110
32 36 39 43 48 53 54 58 59 60 62 62 63 67 70 72 75 77 81 83 86 88 94 99 102 105 100 103 105 112 109 111
33 35 39 46 50 53 55 56 59 59 62 65 68 71 74 74 78 82 84 86 89 95 98 105 107 103 103 106 115 113 112 113
41 41 46 49 51 53 54 56 61 64 65 68 70 71 76 80 83 86 88 92 97 97 105 107 100 103 105 113 113 114 111 113
43 48 50 49 50 54 56 61 65 67 69 71 74 76 79 83 86 87 95 96 104 105 108 109 104 112 114 115 118 116 114 114
48 49 51 52 55 57 62 65 67 68 71 74 78 80 83 88 86 96 96 104 103 106 113 108 112 115 118 121 120 118 119 122
49 50 53 56 57 60 64 66 69 71 75 79 83 84 86 90 97 95 104 106 108 114 112 113 114 119 123 120 120 122 124 130
Wind_Direction
265 267 269 267 250 256 251 276 278 274 268 271 273 276 275 275 273 273 275 278 282 285 288 288 289 291 293 293 293 294 296 296
252 252 270 274 276 281 258 263 271 271 269 267 270 269 272 274 275 279 281 282 285 284 286 288 292 291 291 293 295 292 294 295
249 265 267 254 249 249 249 254 255 258 261 265 266 271 273 277 279 282 284 284 287 289 291 290 290 293 294 290 292 293 296 297
235 243 243 245 246 250 252 255 261 265 269 273 277 277 278 281 282 283 285 288 289 288 289 292 294 289 291 292 294 295 297 300
227 237 249 253 256 255 257 259 259 264 272 276 280 281 282 282 283 285 287 288 290 293 293 288 290 293 293 295 297 298 298 297
238 239 244 254 259 263 266 270 273 273 274 276 278 280 282 284 285 286 289 292 292 293 296 297 299 298 297 297 295 298 300 301
250 248 265 257 262 265 265 269 273 274 278 282 282 284 285 285 289 292 294 293 292 294 294 295 295 296 297 297 297 300 302 300
262 260 262 267 271 270 273 275 277 277 279 283 284 287 288 291 292 290 289 290 289 289 290 290 292 295 295 297 298 298 301 301
262 266 265 268 270 277 278 278 281 281 282 285 288 285 289 289 289 291 291 289 286 290 294 293 295 298 299 300 301 308 305 302
275 276 276 277 278 281 280 281 281 286 291 292 292 292 293 293 293 294 295 292 293 296 299 301 302 302 302 306 308 306 304 303
274 274 276 279 280 280 282 286 289 293 293 293 295 295 295 299 301 302 302 300 300 301 301 303 302 303 307 310 309 305 305 305
277 280 280 282 283 282 285 285 290 292 292 294 300 302 304 304 306 302 301 302 301 303 303 303 305 308 311 311 306 306 307 307
278 277 282 289 291 289 289 290 291 294 298 301 301 301 303 301 300 300 300 302 302 303 305 306 309 311 311 307 308 307 307 310
275 283 284 285 284 286 290 292 294 297 297 299 300 299 297 298 300 301 302 303 305 306 308 310 311 312 308 308 308 309 314 314
277 277 276 277 279 282 287 294 294 296 298 296 296 298 301 302 303 304 307 307 307 310 312 312 312 312 308 309 311 317 316 315
281 283 280 283 288 288 289 289 293 293 296 299 302 304 302 303 306 309 308 309 312 312 312 313 311 309 309 311 316 317 315 313
275 275 279 284 291 291 294 295 298 302 305 303 303 304 307 307 309 309 311 312 314 314 315 316 311 311 314 317 319 317 314 314
289 292 295 295 295 297 297 298 301 303 302 306 306 308 307 310 309 312 313 312 313 315 316 313 312 316 318 319 317 318 318 317
286 288 289 291 293 294 296 300 304 308 307 305 306 309 310 312 312 312 313 314 315 316 315 314 315 318 318 317 317 319 318 316